Location: Unspecified
(33.6682°S, 0.0000°E)
Time: 17:35:49
(UTC+00:00)

Explorer 7 - Visible Passes

Search period start: 07 August 2020 00:00
Search period end: 17 August 2020 00:00
Orbit: 485 x 679 km, 50.3° (Epoch: 06 August)

Date Brightness Start Highest point End Pass type
(mag) Time Alt. Az. Time Alt. Az. Time Alt. Az.
11 Aug 9.9 05:02:27 10° NNE 05:05:00 15° NE 05:07:37 10° E visible
12 Aug 9.1 05:05:51 10° N 05:09:31 26° NE 05:13:23 10° ESE visible
13 Aug 8.0 05:10:06 11° NNW 05:14:07 46° NE 05:18:35 10° ESE visible
14 Aug 7.1 05:15:54 21° NW 05:18:48 80° NE 05:23:30 10° SE visible
15 Aug 9.8 03:45:02 15° E 03:45:02 15° E 03:46:25 10° E visible
15 Aug 7.1 05:21:23 28° WNW 05:23:36 61° SW 05:28:15 10° SE visible
16 Aug 9.5 03:50:19 19° E 03:50:19 19° E 03:51:59 10° ESE visible
16 Aug 7.7 05:26:39 26° W 05:28:29 38° SSW 05:32:53 10° SE visible
